カタログに戻る

STARLINK-31270

運用中通信VLEO
NORAD 59154·PAYLOAD·🇺🇸 United States

打ち上げ Mar 4, 2024 から Cape Canaveral Space Force Station

Loading…

次のパス (今後24時間)

TLE

最新Source: CelesTrak SupGP

元期: Sep 14, 2026, 21:26 UTC

1 59154C 24044C   26257.89354167  .00004921  00000+0  17831-3 0  2578
2 59154  42.9991 118.5941 0001392 271.8781 347.6597 15.27564478    19

AllMySatでSTARLINK-31270をリアルタイム追跡

Download on the App Store